When you browse on this site, cookies collect data to enhance your experience and personalize the content and advertising you see.
Visit our Privacy Policy to learn more. By continuing to use the site, you agree to this use of cookies and data.
  • In Hungary
  • List of Countries
  • For 7 days
  • Water Temperature
  • Weather Map
  • News
  • Weather Widgets
  • user-avatar
    Login

    Hourly Weather Jhajjar

    Today, 13 November, Wednesday

    Time Temperature Precipitation Wind Pressure Humidity
    00:00 +23°C° 0 mm 1 mps 741 mmHg 26%
    01:00 +23°C° 0 mm 1 mps 741 mmHg 26%
    02:00 +23°C° 0 mm 1 mps 741 mmHg 27%
    03:00 +22°C° 0 mm 1 mps 741 mmHg 27%
    04:00 +22°C° 0 mm 1 mps 741 mmHg 28%
    05:00 +22°C° 0 mm 1 mps 741 mmHg 28%
    06:00 +20°C° 0 mm 0 mps 742 mmHg 27%
    07:00 +21°C° 0 mm 0 mps 742 mmHg 26%
    08:00 +22°C° 0 mm 0 mps 743 mmHg 25%
    09:00 +24°C° 0 mm 0 mps 743 mmHg 22%
    10:00 +29°C° 0 mm 1 mps 743 mmHg 19%
    11:00 +31°C° 0 mm 1 mps 743 mmHg 17%
    12:00 +31°C° 0 mm 2 mps 743 mmHg 18%
    13:00 +32°C° 0 mm 2 mps 742 mmHg 19%
    14:00 +34°C° 0 mm 2 mps 741 mmHg 20%
    15:00 +31°C° 0 mm 2 mps 741 mmHg 21%
    16:00 +30°C° 0 mm 2 mps 741 mmHg 23%
    17:00 +27°C° 0 mm 2 mps 741 mmHg 20%
    18:00 +27°C° 0 mm 2 mps 742 mmHg 21%
    19:00 +26°C° 0 mm 2 mps 742 mmHg 22%
    20:00 +25°C° 0 mm 2 mps 743 mmHg 23%
    21:00 +25°C° 0 mm 2 mps 743 mmHg 24%
    22:00 +25°C° 0 mm 2 mps 743 mmHg 25%
    23:00 +25°C° 0 mm 2 mps 742 mmHg 27%

    Tomorrow, 14 November, Thursday

    Time Temperature Precipitation Wind Pressure Humidity
    00:00 +24°C° 0 mm 1 mps 742 mmHg 28%
    01:00 +24°C° 0 mm 1 mps 742 mmHg 29%
    02:00 +24°C° 0 mm 1 mps 742 mmHg 30%
    03:00 +24°C° 0 mm 1 mps 742 mmHg 31%
    04:00 +23°C° 0 mm 1 mps 742 mmHg 31%
    05:00 +23°C° 0 mm 1 mps 742 mmHg 32%
    06:00 +24°C° 0 mm 1 mps 742 mmHg 31%
    07:00 +25°C° 0 mm 1 mps 743 mmHg 30%
    08:00 +26°C° 0 mm 1 mps 743 mmHg 29%
    09:00 +25°C° 0 mm 0 mps 743 mmHg 27%
    10:00 +26°C° 0 mm 0 mps 743 mmHg 25%
    11:00 +28°C° 0 mm 0 mps 743 mmHg 23%
    12:00 +28°C° 0 mm 0 mps 743 mmHg 23%
    13:00 +29°C° 0 mm 0 mps 742 mmHg 23%
    14:00 +30°C° 0 mm 0 mps 742 mmHg 23%
    15:00 +31°C° 0 mm 1 mps 742 mmHg 25%
    16:00 +30°C° 0 mm 1 mps 741 mmHg 27%
    17:00 +29°C° 0 mm 2 mps 741 mmHg 28%
    18:00 +28°C° 0 mm 2 mps 742 mmHg 30%
    19:00 +27°C° 0 mm 2 mps 742 mmHg 31%
    20:00 +26°C° 0 mm 2 mps 742 mmHg 32%
    21:00 +26°C° 0 mm 2 mps 742 mmHg 34%
    22:00 +25°C° 0 mm 2 mps 742 mmHg 36%
    23:00 +24°C° 0 mm 3 mps 742 mmHg 38%

    Day after tomorrow, 15 November, Friday

    Time Temperature Precipitation Wind Pressure Humidity
    00:00 +24°C° 0 mm 2 mps 742 mmHg 39%
    01:00 +24°C° 0 mm 2 mps 741 mmHg 41%
    02:00 +24°C° 0 mm 2 mps 741 mmHg 42%
    03:00 +23°C° 0 mm 2 mps 741 mmHg 42%
    04:00 +23°C° 0 mm 1 mps 741 mmHg 43%
    05:00 +23°C° 0 mm 1 mps 741 mmHg 43%
    06:00 +23°C° 0 mm 1 mps 741 mmHg 41%
    07:00 +24°C° 0 mm 2 mps 742 mmHg 39%
    08:00 +25°C° 0 mm 2 mps 743 mmHg 37%
    09:00 +26°C° 0 mm 2 mps 743 mmHg 35%
    10:00 +28°C° 0 mm 3 mps 742 mmHg 32%
    11:00 +30°C° 0 mm 4 mps 742 mmHg 29%
    12:00 +30°C° 0 mm 4 mps 742 mmHg 27%
    13:00 +32°C° 0 mm 4 mps 741 mmHg 26%
    14:00 +33°C° 0 mm 4 mps 741 mmHg 24%
    15:00 +32°C° 0 mm 4 mps 740 mmHg 27%
    16:00 +30°C° 0 mm 4 mps 740 mmHg 30%
    17:00 +28°C° 0 mm 4 mps 740 mmHg 34%
    18:00 +27°C° 0 mm 4 mps 740 mmHg 38%
    19:00 +26°C° 0 mm 4 mps 741 mmHg 42%
    20:00 +25°C° 0 mm 4 mps 741 mmHg 46%
    21:00 +24°C° 0 mm 3 mps 741 mmHg 50%
    22:00 +22°C° 0 mm 3 mps 741 mmHg 54%
    23:00 +21°C° 0 mm 2 mps 741 mmHg 58%

    16 November, Saturday

    Time Temperature Precipitation Wind Pressure Humidity
    00:00 +21°C° 0 mm 2 mps 740 mmHg 59%
    01:00 +21°C° 0 mm 2 mps 740 mmHg 61%
    02:00 +20°C° 0 mm 2 mps 740 mmHg 63%
    03:00 +20°C° 0 mm 2 mps 740 mmHg 63%
    04:00 +20°C° 0 mm 2 mps 740 mmHg 63%
    05:00 +20°C° 0 mm 2 mps 740 mmHg 64%
    06:00 +21°C° 0 mm 2 mps 740 mmHg 61%
    07:00 +21°C° 0 mm 3 mps 741 mmHg 58%
    08:00 +22°C° 0 mm 3 mps 742 mmHg 54%
    09:00 +25°C° 0 mm 3 mps 742 mmHg 47%
    10:00 +28°C° 0 mm 4 mps 742 mmHg 40%
    11:00 +30°C° 0 mm 4 mps 742 mmHg 33%
    12:00 +32°C° 0 mm 4 mps 741 mmHg 31%
    13:00 +32°C° 0 mm 5 mps 741 mmHg 30%
    14:00 +33°C° 0 mm 5 mps 740 mmHg 28%
    15:00 +32°C° 0 mm 4 mps 740 mmHg 31%
    16:00 +29°C° 0 mm 4 mps 740 mmHg 34%
    17:00 +28°C° 0 mm 4 mps 740 mmHg 36%
    18:00 +27°C° 0 mm 3 mps 740 mmHg 40%
    19:00 +26°C° 0 mm 3 mps 741 mmHg 44%
    20:00 +24°C° 0 mm 3 mps 741 mmHg 47%
    21:00 +24°C° 0 mm 3 mps 741 mmHg 50%
    22:00 +22°C° 0 mm 3 mps 741 mmHg 52%
    23:00 +21°C° 0 mm 3 mps 742 mmHg 54%

    17 November, Sunday

    Time Temperature Precipitation Wind Pressure Humidity
    00:00 +21°C° 0 mm 3 mps 741 mmHg 55%
    01:00 +20°C° 0 mm 3 mps 741 mmHg 57%
    02:00 +20°C° 0 mm 3 mps 741 mmHg 58%
    03:00 +20°C° 0 mm 3 mps 741 mmHg 59%
    04:00 +19°C° 0 mm 3 mps 741 mmHg 60%
    05:00 +19°C° 0 mm 3 mps 741 mmHg 61%
    06:00 +20°C° 0 mm 3 mps 741 mmHg 59%
    07:00 +21°C° 0 mm 3 mps 742 mmHg 58%
    08:00 +21°C° 0 mm 3 mps 742 mmHg 56%
    09:00 +23°C° 0 mm 4 mps 742 mmHg 49%
    10:00 +27°C° 0 mm 5 mps 742 mmHg 41%
    11:00 +29°C° 0 mm 5 mps 742 mmHg 34%
    12:00 +30°C° 0 mm 6 mps 742 mmHg 32%
    13:00 +30°C° 0 mm 6 mps 741 mmHg 29%
    14:00 +32°C° 0 mm 6 mps 740 mmHg 27%
    15:00 +30°C° 0 mm 5 mps 740 mmHg 29%
    16:00 +29°C° 0 mm 4 mps 740 mmHg 30%
    17:00 +27°C° 0 mm 3 mps 740 mmHg 32%
    18:00 +26°C° 0 mm 4 mps 740 mmHg 34%
    19:00 +25°C° 0 mm 4 mps 740 mmHg 36%
    20:00 +23°C° 0 mm 4 mps 741 mmHg 38%
    21:00 +23°C° 0 mm 4 mps 741 mmHg 41%
    22:00 +22°C° 0 mm 3 mps 741 mmHg 43%
    23:00 +22°C° 0 mm 3 mps 741 mmHg 45%

    18 November, Monday

    Time Temperature Precipitation Wind Pressure Humidity
    00:00 +21°C° 0 mm 3 mps 740 mmHg 47%
    01:00 +21°C° 0 mm 3 mps 740 mmHg 49%
    02:00 +20°C° 0 mm 3 mps 740 mmHg 51%
    03:00 +20°C° 0 mm 3 mps 740 mmHg 52%
    04:00 +20°C° 0 mm 3 mps 739 mmHg 54%
    05:00 +19°C° 0 mm 3 mps 739 mmHg 55%
    06:00 +20°C° 0 mm 3 mps 740 mmHg 53%
    07:00 +21°C° 0 mm 3 mps 741 mmHg 50%
    08:00 +22°C° 0 mm 4 mps 741 mmHg 48%
    09:00 +25°C° 0 mm 4 mps 741 mmHg 41%
    10:00 +27°C° 0 mm 4 mps 741 mmHg 35%
    11:00 +29°C° 0 mm 4 mps 741 mmHg 28%
    12:00 +30°C° 0 mm 4 mps 741 mmHg 27%
    13:00 +30°C° 0 mm 4 mps 740 mmHg 26%
    14:00 +32°C° 0 mm 4 mps 739 mmHg 24%
    15:00 +29°C° 0 mm 4 mps 739 mmHg 26%
    16:00 +28°C° 0 mm 3 mps 739 mmHg 28%
    17:00 +26°C° 0 mm 3 mps 739 mmHg 29%
    18:00 +26°C° 0 mm 3 mps 739 mmHg 30%
    19:00 +25°C° 0 mm 3 mps 740 mmHg 31%
    20:00 +24°C° 0 mm 3 mps 740 mmHg 32%
    21:00 +22°C° 0 mm 3 mps 740 mmHg 33%
    22:00 +23°C° 0 mm 2 mps 740 mmHg 35%
    23:00 +21°C° 0 mm 2 mps 740 mmHg 36%
    Show more